Location: Barrio de Buenos Aires
(28.4500°N, 16.2667°W)
Time: 18:40:43
(UTC+00:00)

H-2A R/B - Pass Details

Date: 24 January 2020
Orbit: 259 x 32813 km, 28.4° (Epoch: 27 February)

Event Time Altitude Azimuth Distance (km) Brightness Sun altitude
Rises 12:35:32 0° 234° (SW) 13,658 8.6 41.2°
Reaches altitude 10° 13:01:14 10° 220° (SW) 18,529 9.7 42.1°
Maximum altitude 21:14:39 51° 170° (S) 3,008 4.8 -34.3°
Enters shadow 21:16:46 47° 141° (SE) 2,574 4.3 -34.8°
